Regional Weather Roundup
Issued by NWS

Home | Current Version | Previous Version | Graphics & Text | Print | Product List | Glossary On
Versions: 1 2 3 4 5 6 7 8 9 10 11 12 13 14 15 16 17 18 19 20 21 22 23 24 25 26 27
000
ASUS45 KBOU 030807
RWRCO

WEATHER ROUNDUP FOR COLORADO
NATIONAL WEATHER SERVICE DENVER/BOULDER CO
100 AM MST SAT DEC 03 2016

NOTE: "FAIR" INDICATES FEW OR NO CLOUDS BELOW 12000 FEET WITH NO
SIGNIFICANT WEATHER AND/OR OBSTRUCTIONS TO VISIBILITY.

COZ001>005-013-030-031-030900-
...NORTHWEST COLORADO...

CITY           SKY/WX    TMP DP  RH WIND       PRES   REMARKS
CRAIG          CLOUDY    19  14  81 CALM      30.18F
HAYDEN         CLOUDY    19  12  73 CALM      30.16S
MEEKER         CLOUDY    12   8  84 W3        30.19S
MOUNT WERNER   NOT AVBL
STEAMBOAT SPGS CLOUDY    17  14  89 CALM      30.15S
WALDEN           N/A      9   3  78 CALM      30.07F
$$

COZ006>008-011-030900-
...WEST CENTRAL VALLEYS...

CITY           SKY/WX    TMP DP  RH WIND       PRES   REMARKS
GRAND JUNCTION FAIR      24  19  81 CALM      30.20S
MONTROSE       CLOUDY    25  20  81 S3        30.20F
EAGLE          FLURRIES  20  18  92 S3        30.17F
RIFLE          CLOUDY    24  16  71 NW5       30.20F WCI  18
DELTA          NOT AVBL
NUCLA          FAIR      25  23  93 E7        30.19F WCI  17
$$

COZ017>023-064>068-030900-
...SOUTHWEST COLORADO...

CITY           SKY/WX    TMP DP  RH WIND       PRES   REMARKS
DURANGO        FAIR      24  21  88 CALM      30.08S
CORTEZ         FAIR      18  17  96 NE6       30.12S WCI  10
PAGOSA SPRINGS FAIR      24  24  99 CALM      30.09R
TELLURIDE      FAIR      18  16  93 CALM      30.10F
WOLF CREEK PAS FOG       12  12 100 SW6       30.09F VSB 1/4 WCI   3
$$

COZ009-010-012-014-032>034-037-058>063-030900-
...CENTRAL COLORADO...

CITY           SKY/WX    TMP DP  RH WIND       PRES   REMARKS
ASPEN          CLOUDY    18  16  92 S3        30.10F FOG
BUENA VISTA    FLURRIES  10   6  84 CALM      30.11F
COPPER MTN     NOT AVBL
BERTHOUD PASS  FAIR       5  -8  56 W15G23    29.96S WCI -13
COTTONWOOD PAS LGT SNOW  16  12  86 CALM      30.05F
GUNNISON       FLURRIES  16  12  84 E6        30.13F WCI   7
KREMMLING      LGT SNOW  16  12  86 CALM      30.12F
LEADVILLE      FAIR       0  -5  79 NE3       30.03F
MONARCH PASS   CLOUDY    10   9  92 SW18      30.12F WCI  -8
SALIDA         MOCLDY    15  13  90 W3        30.20F
SUNLIGHT       LGT SNOW N/A N/A N/A SW5       30.09F
WILKERSON PASS FOG       10   7  85 SW15G23   30.01F VSB 1   WCI  -6
$$

COZ069>075-030900-
...SAN LUIS VALLEY/SANGRE DE CRISTO MOUNTAINS...

CITY           SKY/WX    TMP DP  RH WIND       PRES   REMARKS
ALAMOSA        CLOUDY    21  18  88 W6        30.10F WCI  13
LA VETA PASS   CLOUDY    19  16  86 NE13      30.03F WCI   7
SAGUACHE       CLOUDY    23  19  86 NW7       30.09F WCI  15
$$

COZ035-036-038>040-030900-
...NORTHERN COLORADO FRONT RANGE...

CITY           SKY/WX    TMP DP  RH WIND       PRES   REMARKS
DENVER INTL AP FAIR      16  12  84 SE9       30.09F WCI   4
DMNS CITY PARK   N/A     22  18  82 E6        30.10F WCI  15
AURORA         PTCLDY    20  15  81 W3        30.10F
FRONT RANGE AP FAIR      23  18  80 SW3       30.11S
ERIE MUNI ARPT CLOUDY    23  21  91 CALM      30.10F
BOULDER MUN AP MOCLDY    25  16  68 CALM      30.10F
CENTENNIAL     FAIR      21  15  78 SW8       30.08F WCI  11
BROOMFIELD     FAIR      27  23  86 CALM      30.09F
FORT COLLINS   FAIR      23  19  86 SE3       30.11F
LONGMONT       MOCLDY    21  16  80 W5        30.13F WCI  14
$$

COZ041-046-047-076>085-087-088-030900-
...PIKES PEAK/PALMER DIVIDE AND SOUTHERN FOOTHILLS...

CITY           SKY/WX    TMP DP  RH WIND       PRES   REMARKS
COLO. SPRINGS  MOCLDY    25  17  72 S15       30.13F WCI  13
A. F. ACADEMY  CLOUDY    22  17  79 SE7       30.10F WCI  13
SCHRIEVER AFB  NOT AVBL
ELLICOTT       CLOUDY   N/A N/A N/A SW9       30.13F
FALCON         CLOUDY    22  16  78 S12       30.12F WCI  11
FORT CARSON    CLOUDY    28  18  67 S13       30.12F WCI  17
LIMON          CLOUDY    22  19  89 S12       30.15F WCI  10
MONUMENT HILL  FAIR      19  14  79 S17G23    30.07F WCI   4
TRINIDAD       FAIR      19  16  88 W3        30.15F
$$

COZ042>045-048>051-090-091-030900-
...NORTHEAST COLORADO...

CITY           SKY/WX    TMP DP  RH WIND       PRES   REMARKS
GREELEY ARPT   FAIR      17  14  88 CALM      30.13F
AKRON          FAIR      27  19  72 S16       30.15F WCI  15
BURLINGTON     CLOUDY    32  21  64 S9        30.21F WCI  24
WRAY           NOT AVBL
STERLING       CLOUDY    27  21  80 SW5       30.16F WCI  21
HOLYOKE        MOCLDY    32  23  69 S8        30.20F WCI  25
FORT MORGAN    NOT AVBL
$$

COZ086-089-092>099-030900-
...SOUTHEAST COLORADO...

CITY           SKY/WX    TMP DP  RH WIND       PRES   REMARKS
PUEBLO         CLOUDY    30  22  72 CALM      30.18F
LA JUNTA       CLOUDY    28  19  69 W7        30.20F WCI  21
LAMAR          CLOUDY    34  18  52 S6        30.21F WCI  29
SPRINGFIELD      N/A     30  21  69 CALM      30.19F
$$




USA.gov is the U.S. government's official web portal to all federal, state and local government web resources and services.